Time,TemperatureF,DewpointF,PressureIn,WindDirection,WindDirectionDegrees,WindSpeedMPH,WindSpeedGustMPH,Humidity,HourlyPrecipIn,Conditions,Clouds,dailyrainin,SoftwareType,DateUTC
2013-05-18 00:01:00,48.0,42.0,28.79,NW,309,2.1,4.3,80,-99.99,,,-99.99,WSDL version 420,2013-05-18 06:01:00,
2013-05-18 00:06:00,48.1,42.3,28.79,NW,305,2.5,4.3,81,-99.99,,,-99.99,WSDL version 420,2013-05-18 06:06:00,
2013-05-18 00:11:00,48.0,42.5,28.79,NW,324,0.3,4.3,81,-99.99,,,-99.99,WSDL version 420,2013-05-18 06:11:00,
2013-05-18 00:16:00,48.0,42.9,28.76,NW,318,0.6,3.6,83,-99.99,,,-99.99,WSDL version 420,2013-05-18 06:16:00,
2013-05-18 00:21:00,48.1,43.5,28.76,SW,225,0.0,3.1,84,-99.99,,,-99.99,WSDL version 420,2013-05-18 06:21:00,
2013-05-18 00:26:00,48.3,44.2,28.76,SSW,193,1.3,2.7,86,-99.99,,,-99.99,WSDL version 420,2013-05-18 06:26:00,
2013-05-18 00:31:00,48.2,44.4,28.79,SW,236,0.0,2.7,87,-99.99,,,-99.99,WSDL version 420,2013-05-18 06:31:00,
2013-05-18 00:36:00,48.1,44.3,28.79,South,177,0.0,0.0,87,-99.99,,,-99.99,WSDL version 420,2013-05-18 06:36:00,
2013-05-18 00:41:00,48.0,44.2,28.79,NW,308,1.5,4.3,87,-99.99,,,-99.99,WSDL version 420,2013-05-18 06:41:00,
2013-05-18 00:46:00,48.2,44.4,28.82,WNW,297,1.8,4.3,87,-99.99,,,-99.99,WSDL version 420,2013-05-18 06:46:00,
2013-05-18 00:51:00,48.4,45.0,28.82,WNW,297,4.6,6.0,89,-99.99,,,-99.99,WSDL version 420,2013-05-18 06:51:00,
2013-05-18 00:56:00,48.7,45.9,28.82,WNW,293,6.6,10.5,91,-99.99,,,-99.99,WSDL version 420,2013-05-18 06:56:00,
2013-05-18 01:01:00,49.0,47.0,28.82,WNW,293,5.7,10.5,93,-99.99,,,-99.99,WSDL version 420,2013-05-18 07:01:00,
2013-05-18 01:06:00,49.6,47.9,28.82,WNW,296,5.1,8.7,94,-99.99,,,-99.99,WSDL version 420,2013-05-18 07:06:00,
2013-05-18 01:11:00,50.0,48.6,28.82,NW,309,5.6,8.5,96,-99.99,,,-99.99,WSDL version 420,2013-05-18 07:11:00,
2013-05-18 01:16:00,50.4,49.4,28.82,NW,323,5.0,8.5,97,-99.99,,,-99.99,WSDL version 420,2013-05-18 07:16:00,
2013-05-18 01:21:00,50.8,49.9,28.82,NW,309,5.6,8.5,98,-99.99,,,-99.99,WSDL version 420,2013-05-18 07:21:00,
2013-05-18 01:26:00,51.0,50.4,28.82,NW,326,4.3,8.1,98,-99.99,,,-99.99,WSDL version 420,2013-05-18 07:26:00,
2013-05-18 01:31:00,51.1,50.5,28.82,NNW,334,3.2,8.1,98,-99.99,,,-99.99,WSDL version 420,2013-05-18 07:31:00,
2013-05-18 01:36:00,51.3,50.7,28.82,NW,318,2.9,6.5,98,-99.99,,,-99.99,WSDL version 420,2013-05-18 07:36:00,
2013-05-18 01:41:00,51.4,51.1,28.82,NNW,341,3.0,4.7,99,-99.99,,,-99.99,WSDL version 420,2013-05-18 07:41:00,
2013-05-18 01:46:00,51.6,51.3,28.82,North,354,2.1,5.6,99,-99.99,,,-99.99,WSDL version 420,2013-05-18 07:46:00,
2013-05-18 01:51:00,51.6,51.6,28.82,North,353,4.0,6.0,100,-99.99,,,-99.99,WSDL version 420,2013-05-18 07:51:00,
2013-05-18 01:56:00,51.7,51.7,28.82,NNW,334,4.0,6.0,100,-99.99,,,-99.99,WSDL version 420,2013-05-18 07:56:00,
2013-05-18 02:01:00,51.8,51.8,28.82,North,350,7.0,10.5,100,-99.99,,,-99.99,WSDL version 420,2013-05-18 08:01:00,
2013-05-18 02:06:00,51.8,51.8,28.82,North,350,5.9,10.5,100,-99.99,,,-99.99,WSDL version 420,2013-05-18 08:06:00,
2013-05-18 02:11:00,51.8,51.8,28.82,NNW,330,6.2,10.3,100,-99.99,,,-99.99,WSDL version 420,2013-05-18 08:11:00,
2013-05-18 02:16:00,51.8,51.8,28.82,NW,315,6.8,10.3,100,-99.99,,,-99.99,WSDL version 420,2013-05-18 08:16:00,
2013-05-18 02:21:00,52.0,52.0,28.82,NNW,328,5.3,10.1,100,-99.99,,,-99.99,WSDL version 420,2013-05-18 08:21:00,
2013-05-18 02:26:00,51.9,51.9,28.82,NW,326,4.4,8.1,100,-99.99,,,-99.99,WSDL version 420,2013-05-18 08:26:00,
2013-05-18 02:31:00,51.8,51.8,28.82,NNW,328,6.2,8.1,100,-99.99,,,-99.99,WSDL version 420,2013-05-18 08:31:00,
2013-05-18 02:36:00,52.0,52.0,28.82,NW,321,5.6,8.1,100,-99.99,,,-99.99,WSDL version 420,2013-05-18 08:36:00,
2013-05-18 02:41:00,52.0,52.0,28.82,NW,321,4.8,7.4,100,-99.99,,,-99.99,WSDL version 420,2013-05-18 08:41:00,
2013-05-18 02:46:00,52.0,52.0,28.82,WNW,302,4.7,7.4,100,-99.99,,,-99.99,WSDL version 420,2013-05-18 08:46:00,
2013-05-18 02:51:00,52.0,52.0,28.82,NNW,333,3.8,6.0,100,-99.99,,,-99.99,WSDL version 420,2013-05-18 08:51:00,
2013-05-18 02:56:00,52.0,52.0,28.82,NNW,340,6.3,7.6,100,-99.99,,,-99.99,WSDL version 420,2013-05-18 08:56:00,
2013-05-18 03:01:00,52.0,52.0,28.82,NW,305,6.5,7.8,100,-99.99,,,-99.99,WSDL version 420,2013-05-18 09:01:00,
2013-05-18 03:06:00,52.2,52.2,28.82,NNW,329,4.9,7.8,100,-99.99,,,-99.99,WSDL version 420,2013-05-18 09:06:00,
2013-05-18 03:11:00,52.2,52.2,28.82,NW,312,5.0,6.5,100,-99.99,,,-99.99,WSDL version 420,2013-05-18 09:11:00,
2013-05-18 03:16:00,52.2,52.2,28.82,NW,311,6.0,8.1,100,-99.99,,,-99.99,WSDL version 420,2013-05-18 09:16:00,
2013-05-18 03:21:00,52.2,52.2,28.82,NW,318,6.1,8.7,100,-99.99,,,-99.99,WSDL version 420,2013-05-18 09:21:00,
2013-05-18 03:26:00,52.1,52.1,28.82,NNW,347,5.6,9.6,100,-99.99,,,-99.99,WSDL version 420,2013-05-18 09:26:00,
2013-05-18 03:31:00,52.0,52.0,28.82,NNW,338,4.8,9.6,100,-99.99,,,-99.99,WSDL version 420,2013-05-18 09:31:00,
2013-05-18 03:36:00,52.0,52.0,28.82,NNW,328,5.3,8.1,100,-99.99,,,-99.99,WSDL version 420,2013-05-18 09:36:00,
2013-05-18 03:41:00,52.0,52.0,28.82,NW,321,5.4,8.1,100,-99.99,,,-99.99,WSDL version 420,2013-05-18 09:41:00,
2013-05-18 03:46:00,52.0,52.0,28.82,NNW,330,4.7,7.6,100,-99.99,,,-99.99,WSDL version 420,2013-05-18 09:46:00,
2013-05-18 03:51:00,52.0,52.0,28.82,NNW,338,3.4,7.2,100,-99.99,,,-99.99,WSDL version 420,2013-05-18 09:51:00,
2013-05-18 03:56:00,51.9,51.9,28.82,North,352,5.2,6.7,100,-99.99,,,-99.99,WSDL version 420,2013-05-18 09:56:00,
2013-05-18 04:01:00,51.8,51.8,28.82,NNW,334,5.7,9.8,100,-99.99,,,-99.99,WSDL version 420,2013-05-18 10:01:00,
2013-05-18 04:06:00,51.6,51.6,28.82,NNW,331,4.3,9.8,100,-99.99,,,-99.99,WSDL version 420,2013-05-18 10:06:00,
2013-05-18 04:11:00,51.6,51.6,28.82,NNW,329,5.7,8.1,100,-99.99,,,-99.99,WSDL version 420,2013-05-18 10:11:00,
2013-05-18 04:16:00,51.5,51.5,28.82,NNW,334,5.4,8.1,100,-99.99,,,-99.99,WSDL version 420,2013-05-18 10:16:00,
2013-05-18 04:21:00,51.4,51.4,28.82,NW,307,5.3,8.1,100,-99.99,,,-99.99,WSDL version 420,2013-05-18 10:21:00,
2013-05-18 04:26:00,51.4,51.4,28.82,NW,323,5.4,7.4,100,-99.99,,,-99.99,WSDL version 420,2013-05-18 10:26:00,
2013-05-18 04:31:00,51.4,51.4,28.85,NNW,332,5.1,7.4,100,-99.99,,,-99.99,WSDL version 420,2013-05-18 10:31:00,
2013-05-18 04:36:00,51.3,51.3,28.85,NNW,341,4.9,8.5,100,-99.99,,,-99.99,WSDL version 420,2013-05-18 10:36:00,
2013-05-18 04:41:00,51.3,51.3,28.85,NNW,335,4.5,8.5,100,-99.99,,,-99.99,WSDL version 420,2013-05-18 10:41:00,
2013-05-18 04:46:00,51.4,51.4,28.85,NNW,330,4.5,7.4,100,-99.99,,,-99.99,WSDL version 420,2013-05-18 10:46:00,
2013-05-18 04:51:00,51.4,51.4,28.85,NW,315,4.4,6.5,100,-99.99,,,-99.99,WSDL version 420,2013-05-18 10:51:00,
2013-05-18 04:56:00,51.4,51.4,28.85,North,352,2.4,6.5,100,-99.99,,,-99.99,WSDL version 420,2013-05-18 10:56:00,
2013-05-18 05:01:00,51.4,51.4,28.85,NNW,347,3.9,6.0,100,-99.99,,,-99.99,WSDL version 420,2013-05-18 11:01:00,
2013-05-18 05:06:00,51.4,51.4,28.85,NNW,344,3.5,5.8,100,-99.99,,,-99.99,WSDL version 420,2013-05-18 11:06:00,
2013-05-18 05:11:00,51.4,51.4,28.85,NNW,338,2.4,5.8,100,-99.99,,,-99.99,WSDL version 420,2013-05-18 11:11:00,
2013-05-18 05:16:00,51.4,51.4,28.85,NNW,338,3.0,6.0,100,-99.99,,,-99.99,WSDL version 420,2013-05-18 11:16:00,
2013-05-18 05:21:00,51.4,51.4,28.85,NW,326,4.6,6.5,100,-99.99,,,-99.99,WSDL version 420,2013-05-18 11:21:00,
2013-05-18 05:26:00,51.4,51.3,28.85,NNW,343,6.0,7.2,99,-99.99,,,-99.99,WSDL version 420,2013-05-18 11:26:00,
2013-05-18 05:31:00,51.4,51.1,28.85,NW,305,6.1,7.2,99,-99.99,,,-99.99,WSDL version 420,2013-05-18 11:31:00,
2013-05-18 05:36:00,51.4,51.0,28.85,NNW,334,5.8,6.9,98,-99.99,,,-99.99,WSDL version 420,2013-05-18 11:36:00,
2013-05-18 05:41:00,51.4,50.8,28.85,NNW,338,5.1,8.5,98,-99.99,,,-99.99,WSDL version 420,2013-05-18 11:41:00,
2013-05-18 05:46:00,51.4,50.7,28.85,NNW,347,4.2,8.5,97,-99.99,,,-99.99,WSDL version 420,2013-05-18 11:46:00,
2013-05-18 05:51:00,51.5,50.6,28.85,NNW,334,2.8,6.5,97,-99.99,,,-99.99,WSDL version 420,2013-05-18 11:51:00,
2013-05-18 05:56:00,-999.0,-99.9,28.85,NNW,335,3.5,5.8,-999,-99.99,,,-99.99,WSDL version 420,2013-05-18 11:56:00,
2013-05-18 06:01:00,51.7,50.7,28.85,NNW,331,3.5,5.4,96,-99.99,,,-99.99,WSDL version 420,2013-05-18 12:01:00,
2013-05-18 06:06:00,51.8,50.6,28.85,North,349,4.4,6.3,96,-99.99,,,-99.99,WSDL version 420,2013-05-18 12:06:00,
2013-05-18 06:11:00,51.9,50.6,28.85,NNW,328,4.5,7.8,96,-99.99,,,-99.99,WSDL version 420,2013-05-18 12:11:00,
2013-05-18 06:16:00,52.0,50.4,28.85,NNW,338,4.1,8.1,94,-99.99,,,-99.99,WSDL version 420,2013-05-18 12:16:00,
2013-05-18 06:21:00,52.0,50.4,28.85,NW,312,3.4,8.5,94,-99.99,,,-99.99,WSDL version 420,2013-05-18 12:21:00,
2013-05-18 06:26:00,52.0,50.4,28.85,NW,321,4.9,8.5,94,-99.99,,,-99.99,WSDL version 420,2013-05-18 12:26:00,
2013-05-18 06:31:00,52.0,50.4,28.85,NNW,335,5.0,7.4,93,-99.99,,,-99.99,WSDL version 420,2013-05-18 12:31:00,
2013-05-18 06:36:00,52.0,50.1,28.85,NNW,345,6.1,8.5,93,-99.99,,,-99.99,WSDL version 420,2013-05-18 12:36:00,
2013-05-18 06:41:00,52.0,50.3,28.85,NW,325,5.9,8.5,94,-99.99,,,-99.99,WSDL version 420,2013-05-18 12:41:00,
2013-05-18 06:46:00,52.1,50.6,28.85,NNW,334,5.4,8.1,94,-99.99,,,-99.99,WSDL version 420,2013-05-18 12:46:00,
2013-05-18 06:51:00,52.2,50.5,28.85,NW,325,5.6,7.8,93,-99.99,,,-99.99,WSDL version 420,2013-05-18 12:51:00,
2013-05-18 06:56:00,52.0,50.1,28.85,NW,323,4.3,7.8,93,-99.99,,,-99.99,WSDL version 420,2013-05-18 12:56:00,
2013-05-18 07:01:00,52.1,50.2,28.85,NNW,343,5.9,8.7,93,-99.99,,,-99.99,WSDL version 420,2013-05-18 13:01:00,
2013-05-18 07:06:00,52.2,50.3,28.85,North,360,4.3,8.7,93,-99.99,,,-99.99,WSDL version 420,2013-05-18 13:06:00,
2013-05-18 07:11:00,-999.0,-99.9,28.85,North,9,4.7,8.1,-999,-99.99,,,-99.99,WSDL version 420,2013-05-18 13:11:00,
2013-05-18 07:16:00,52.4,50.2,28.85,North,354,4.2,6.5,92,-99.99,,,-99.99,WSDL version 420,2013-05-18 13:16:00,
2013-05-18 07:21:00,52.5,50.2,28.85,North,350,4.7,7.2,91,-99.99,,,-99.99,WSDL version 420,2013-05-18 13:21:00,
2013-05-18 07:26:00,52.5,50.0,28.85,NNE,16,4.4,7.2,91,-99.99,,,-99.99,WSDL version 420,2013-05-18 13:26:00,
2013-05-18 07:31:00,52.8,50.1,28.82,NNE,29,3.7,6.5,90,-99.99,,,-99.99,WSDL version 420,2013-05-18 13:31:00,
2013-05-18 07:36:00,53.1,50.2,28.82,NNE,23,4.1,7.4,90,-99.99,,,-99.99,WSDL version 420,2013-05-18 13:36:00,
2013-05-18 07:41:00,53.1,49.7,28.82,NNE,30,3.7,7.4,88,-99.99,,,-99.99,WSDL version 420,2013-05-18 13:41:00,
2013-05-18 07:46:00,53.5,49.4,28.85,North,9,4.3,5.8,86,-99.99,,,-99.99,WSDL version 420,2013-05-18 13:46:00,
2013-05-18 07:51:00,53.9,49.2,28.85,NNE,23,4.0,5.8,83,-99.99,,,-99.99,WSDL version 420,2013-05-18 13:51:00,
2013-05-18 07:56:00,54.1,48.8,28.85,North,11,4.4,7.4,81,-99.99,,,-99.99,WSDL version 420,2013-05-18 13:56:00,
2013-05-18 08:01:00,54.3,48.1,28.85,NNE,15,4.1,7.4,79,-99.99,,,-99.99,WSDL version 420,2013-05-18 14:01:00,
2013-05-18 08:06:00,54.3,47.1,28.85,NNE,17,4.8,5.8,75,-99.99,,,-99.99,WSDL version 420,2013-05-18 14:06:00,
2013-05-18 08:11:00,54.2,46.0,28.85,NE,42,5.3,6.0,73,-99.99,,,-99.99,WSDL version 420,2013-05-18 14:11:00,
2013-05-18 08:16:00,54.7,46.1,28.85,NE,45,3.6,6.5,73,-99.99,,,-99.99,WSDL version 420,2013-05-18 14:16:00,
2013-05-18 08:21:00,55.4,46.1,28.85,NE,56,5.7,8.1,69,-99.99,,,-99.99,WSDL version 420,2013-05-18 14:21:00,
2013-05-18 08:26:00,55.4,45.4,28.85,ENE,60,4.4,8.1,69,-99.99,,,-99.99,WSDL version 420,2013-05-18 14:26:00,
2013-05-18 08:31:00,55.2,45.2,28.85,NE,56,2.8,6.3,69,-99.99,,,-99.99,WSDL version 420,2013-05-18 14:31:00,
2013-05-18 08:36:00,55.1,45.1,28.85,ENE,58,3.6,5.6,69,-99.99,,,-99.99,WSDL version 420,2013-05-18 14:36:00,
2013-05-18 08:41:00,55.1,45.2,28.85,NNE,26,3.5,5.6,69,-99.99,,,-99.99,WSDL version 420,2013-05-18 14:41:00,
2013-05-18 08:46:00,55.3,45.4,28.85,NE,55,2.9,4.5,69,-99.99,,,-99.99,WSDL version 420,2013-05-18 14:46:00,
2013-05-18 08:51:00,55.7,45.7,28.85,North,357,4.1,5.4,69,-99.99,,,-99.99,WSDL version 420,2013-05-18 14:51:00,
2013-05-18 08:56:00,55.7,45.7,28.85,NNW,342,3.9,5.4,69,-99.99,,,-99.99,WSDL version 420,2013-05-18 14:56:00,
2013-05-18 09:01:00,55.3,45.3,28.85,NW,325,4.3,5.8,69,-99.99,,,-99.99,WSDL version 420,2013-05-18 15:01:00,
2013-05-18 09:06:00,54.9,45.2,28.85,NW,315,4.0,5.8,70,-99.99,,,-99.99,WSDL version 420,2013-05-18 15:06:00,
2013-05-18 09:11:00,54.9,45.3,28.85,North,360,3.7,4.9,70,-99.99,,,-99.99,WSDL version 420,2013-05-18 15:11:00,
2013-05-18 09:16:00,54.7,45.3,28.85,NNE,17,3.5,5.4,71,-99.99,,,-99.99,WSDL version 420,2013-05-18 15:16:00,
2013-05-18 09:21:00,54.6,45.5,28.85,North,357,4.6,6.3,72,-99.99,,,-99.99,WSDL version 420,2013-05-18 15:21:00,
2013-05-18 09:26:00,54.5,45.9,28.85,NNE,23,4.9,6.5,73,-99.99,,,-99.99,WSDL version 420,2013-05-18 15:26:00,
2013-05-18 09:31:00,54.5,46.1,28.85,NNW,347,3.7,6.5,74,-99.99,,,-99.99,WSDL version 420,2013-05-18 15:31:00,
2013-05-18 09:36:00,54.7,46.6,28.85,NNW,330,3.4,5.6,74,-99.99,,,-99.99,WSDL version 420,2013-05-18 15:36:00,
2013-05-18 09:41:00,54.9,46.7,28.85,NNW,338,3.8,5.6,74,-99.99,,,-99.99,WSDL version 420,2013-05-18 15:41:00,
2013-05-18 09:46:00,55.2,47.1,28.85,NNE,23,3.7,5.6,74,-99.99,,,-99.99,WSDL version 420,2013-05-18 15:46:00,
2013-05-18 09:51:00,55.1,46.8,28.85,NE,45,2.7,4.9,73,-99.99,,,-99.99,WSDL version 420,2013-05-18 15:51:00,
2013-05-18 09:56:00,54.9,46.4,28.85,North,10,5.4,6.5,73,-99.99,,,-99.99,WSDL version 420,2013-05-18 15:56:00,
2013-05-18 10:01:00,54.9,46.6,28.88,NNE,26,2.8,6.5,74,-99.99,,,-99.99,WSDL version 420,2013-05-18 16:01:00,
2013-05-18 10:06:00,55.5,47.3,28.88,North,352,1.0,5.8,74,-99.99,,,-99.99,WSDL version 420,2013-05-18 16:06:00,
2013-05-18 10:11:00,56.0,47.9,28.88,North,360,0.2,2.7,74,-99.99,,,-99.99,WSDL version 420,2013-05-18 16:11:00,
2013-05-18 10:16:00,56.9,48.6,28.85,NNW,345,3.5,4.0,73,-99.99,,,-99.99,WSDL version 420,2013-05-18 16:16:00,
2013-05-18 10:21:00,58.0,49.3,28.85,North,357,2.7,4.3,72,-99.99,,,-99.99,WSDL version 420,2013-05-18 16:21:00,
2013-05-18 10:26:00,59.2,49.1,28.85,North,10,2.6,4.3,68,-99.99,,,-99.99,WSDL version 420,2013-05-18 16:26:00,
2013-05-18 10:31:00,60.7,48.9,28.85,NNW,338,3.2,5.4,64,-99.99,,,-99.99,WSDL version 420,2013-05-18 16:31:00,
2013-05-18 10:36:00,-999.0,-99.9,28.85,NNW,329,2.6,5.4,-999,-99.99,,,-99.99,WSDL version 420,2013-05-18 16:36:00,
2013-05-18 10:41:00,60.8,46.7,28.85,NW,326,4.5,6.0,59,-99.99,,,-99.99,WSDL version 420,2013-05-18 16:41:00,
2013-05-18 10:46:00,60.6,45.7,28.85,NW,319,3.9,6.0,58,-99.99,,,-99.99,WSDL version 420,2013-05-18 16:46:00,
2013-05-18 10:51:00,60.9,46.2,28.85,West,276,3.4,6.0,58,-99.99,,,-99.99,WSDL version 420,2013-05-18 16:51:00,
2013-05-18 10:56:00,61.0,45.7,28.85,WNW,302,3.4,4.9,57,-99.99,,,-99.99,WSDL version 420,2013-05-18 16:56:00,
2013-05-18 11:01:00,61.4,45.6,28.85,NW,315,3.6,5.8,54,-99.99,,,-99.99,WSDL version 420,2013-05-18 17:01:00,
2013-05-18 11:06:00,61.5,44.6,28.85,NW,321,3.4,6.5,54,-99.99,,,-99.99,WSDL version 420,2013-05-18 17:06:00,
2013-05-18 11:11:00,62.2,44.9,28.85,NNW,338,0.8,6.5,53,-99.99,,,-99.99,WSDL version 420,2013-05-18 17:11:00,
2013-05-18 11:16:00,63.9,46.3,28.85,NW,305,2.9,4.7,52,-99.99,,,-99.99,WSDL version 420,2013-05-18 17:16:00,
2013-05-18 11:21:00,-999.0,-99.9,28.85,NNW,338,3.2,5.6,-999,-99.99,,,-99.99,WSDL version 420,2013-05-18 17:21:00,
2013-05-18 11:26:00,64.5,44.3,28.85,North,356,2.2,5.8,48,-99.99,,,-99.99,WSDL version 420,2013-05-18 17:26:00,
2013-05-18 11:31:00,64.3,43.0,28.85,NNE,32,4.5,6.0,45,-99.99,,,-99.99,WSDL version 420,2013-05-18 17:31:00,
2013-05-18 11:36:00,64.6,43.3,28.85,North,354,3.5,6.5,46,-99.99,,,-99.99,WSDL version 420,2013-05-18 17:36:00,
2013-05-18 11:41:00,64.0,42.6,28.85,NNE,20,2.3,6.5,46,-99.99,,,-99.99,WSDL version 420,2013-05-18 17:41:00,
2013-05-18 11:46:00,64.9,43.6,28.82,NE,34,0.3,5.4,46,-99.99,,,-99.99,WSDL version 420,2013-05-18 17:46:00,
2013-05-18 11:51:00,66.2,44.4,28.82,ENE,68,2.8,4.9,45,-99.99,,,-99.99,WSDL version 420,2013-05-18 17:51:00,
2013-05-18 11:56:00,65.9,43.4,28.82,NNE,32,2.7,6.3,44,-99.99,,,-99.99,WSDL version 420,2013-05-18 17:56:00,
2013-05-18 12:01:00,66.0,43.0,28.82,North,10,5.0,7.6,43,-99.99,,,-99.99,WSDL version 420,2013-05-18 18:01:00,
2013-05-18 12:06:00,66.8,43.4,28.82,NNW,340,2.7,7.6,43,-99.99,,,-99.99,WSDL version 420,2013-05-18 18:06:00,
2013-05-18 12:11:00,66.7,42.9,28.82,NNW,341,4.8,6.3,42,-99.99,,,-99.99,WSDL version 420,2013-05-18 18:11:00,
2013-05-18 12:16:00,68.4,44.4,28.82,ENE,65,2.6,6.3,41,-99.99,,,-99.99,WSDL version 420,2013-05-18 18:16:00,
2013-05-18 12:21:00,69.9,44.5,28.82,North,10,4.2,5.4,39,-99.99,,,-99.99,WSDL version 420,2013-05-18 18:21:00,
2013-05-18 12:26:00,69.1,42.0,28.82,West,270,2.0,7.4,37,-99.99,,,-99.99,WSDL version 420,2013-05-18 18:26:00,
2013-05-18 12:31:00,68.7,41.1,28.82,NNW,335,2.5,7.4,37,-99.99,,,-99.99,WSDL version 420,2013-05-18 18:31:00,
2013-05-18 12:36:00,68.9,41.1,28.82,NW,326,4.3,6.0,36,-99.99,,,-99.99,WSDL version 420,2013-05-18 18:36:00,
2013-05-18 12:41:00,67.4,39.5,28.82,North,352,5.8,8.1,36,-99.99,,,-99.99,WSDL version 420,2013-05-18 18:41:00,
2013-05-18 12:46:00,66.3,39.0,28.82,NW,326,5.1,8.1,37,-99.99,,,-99.99,WSDL version 420,2013-05-18 18:46:00,
2013-05-18 12:51:00,67.6,40.4,28.82,North,3,5.0,7.6,37,-99.99,,,-99.99,WSDL version 420,2013-05-18 18:51:00,
2013-05-18 12:56:00,69.7,42.3,28.82,NNE,20,3.9,7.2,37,-99.99,,,-99.99,WSDL version 420,2013-05-18 18:56:00,
2013-05-18 13:01:00,68.6,39.9,28.82,NNE,23,6.6,10.5,35,-99.99,,,-99.99,WSDL version 420,2013-05-18 19:01:00,
2013-05-18 13:06:00,68.1,40.0,28.82,North,10,6.9,10.5,36,-99.99,,,-99.99,WSDL version 420,2013-05-18 19:06:00,
2013-05-18 13:11:00,69.1,40.5,28.82,NNE,23,7.0,10.3,35,-99.99,,,-99.99,WSDL version 420,2013-05-18 19:11:00,
2013-05-18 13:16:00,68.1,39.5,28.82,North,6,6.5,10.3,35,-99.99,,,-99.99,WSDL version 420,2013-05-18 19:16:00,
2013-05-18 13:21:00,66.9,38.9,28.82,NNE,13,5.8,8.7,36,-99.99,,,-99.99,WSDL version 420,2013-05-18 19:21:00,
2013-05-18 13:26:00,66.9,38.9,28.82,North,360,4.6,8.5,36,-99.99,,,-99.99,WSDL version 420,2013-05-18 19:26:00,
2013-05-18 13:31:00,66.4,39.4,28.79,NNW,347,7.1,10.3,38,-99.99,,,-99.99,WSDL version 420,2013-05-18 19:31:00,
2013-05-18 13:36:00,65.3,39.1,28.79,North,11,8.9,10.5,38,-99.99,,,-99.99,WSDL version 420,2013-05-18 19:36:00,
2013-05-18 13:41:00,64.8,39.3,28.79,NNW,329,5.7,10.5,39,-99.99,,,-99.99,WSDL version 420,2013-05-18 19:41:00,
2013-05-18 13:46:00,66.0,40.4,28.79,North,354,3.6,8.7,39,-99.99,,,-99.99,WSDL version 420,2013-05-18 19:46:00,
2013-05-18 13:51:00,69.3,42.6,28.79,North,4,3.4,6.3,38,-99.99,,,-99.99,WSDL version 420,2013-05-18 19:51:00,
2013-05-18 13:56:00,69.1,41.2,28.79,North,360,4.7,8.5,36,-99.99,,,-99.99,WSDL version 420,2013-05-18 19:56:00,
2013-05-18 14:01:00,68.8,39.9,28.79,ENE,59,9.1,12.5,34,-99.99,,,-99.99,WSDL version 420,2013-05-18 20:01:00,
2013-05-18 14:06:00,67.8,39.3,28.79,NNE,23,6.0,12.5,36,-99.99,,,-99.99,WSDL version 420,2013-05-18 20:06:00,
2013-05-18 14:11:00,67.9,40.0,28.79,NNE,30,5.1,8.1,36,-99.99,,,-99.99,WSDL version 420,2013-05-18 20:11:00,
2013-05-18 14:16:00,68.6,40.5,28.79,NNE,28,6.7,8.9,35,-99.99,,,-99.99,WSDL version 420,2013-05-18 20:16:00,
2013-05-18 14:21:00,67.8,38.7,28.79,NNE,19,5.8,8.9,35,-99.99,,,-99.99,WSDL version 420,2013-05-18 20:21:00,
2013-05-18 14:26:00,67.4,39.8,28.79,North,354,6.3,8.5,36,-99.99,,,-99.99,WSDL version 420,2013-05-18 20:26:00,
2013-05-18 14:31:00,-999.0,-99.9,28.79,North,354,5.4,8.5,-999,-99.99,,,-99.99,WSDL version 420,2013-05-18 20:31:00,
2013-05-18 14:36:00,66.8,40.0,28.79,NNE,29,7.8,12.3,38,-99.99,,,-99.99,WSDL version 420,2013-05-18 20:36:00,
2013-05-18 14:41:00,67.2,39.6,28.79,NNW,338,7.2,12.3,37,-99.99,,,-99.99,WSDL version 420,2013-05-18 20:41:00,
2013-05-18 14:46:00,65.8,38.7,28.79,North,352,4.9,10.5,37,-99.99,,,-99.99,WSDL version 420,2013-05-18 20:46:00,
2013-05-18 14:51:00,64.9,38.1,28.79,NNE,19,7.8,10.5,37,-99.99,,,-99.99,WSDL version 420,2013-05-18 20:51:00,
2013-05-18 14:56:00,64.0,37.9,28.79,North,349,6.6,8.7,38,-99.99,,,-99.99,WSDL version 420,2013-05-18 20:56:00,
2013-05-18 15:01:00,63.7,37.6,28.79,North,10,2.8,8.7,38,-99.99,,,-99.99,WSDL version 420,2013-05-18 21:01:00,
2013-05-18 15:06:00,63.5,37.8,28.79,NNE,16,7.1,8.5,38,-99.99,,,-99.99,WSDL version 420,2013-05-18 21:06:00,
2013-05-18 15:11:00,63.3,37.8,28.79,NNW,344,6.9,8.7,38,-99.99,,,-99.99,WSDL version 420,2013-05-18 21:11:00,
2013-05-18 15:16:00,63.2,37.4,28.79,North,356,5.6,8.7,38,-99.99,,,-99.99,WSDL version 420,2013-05-18 21:16:00,
2013-05-18 15:21:00,63.1,38.8,28.79,North,352,5.4,9.6,42,-99.99,,,-99.99,WSDL version 420,2013-05-18 21:21:00,
2013-05-18 15:26:00,62.7,39.4,28.79,NE,50,5.2,9.6,42,-99.99,,,-99.99,WSDL version 420,2013-05-18 21:26:00,
2013-05-18 15:31:00,62.2,39.6,28.79,NNE,19,6.5,9.6,44,-99.99,,,-99.99,WSDL version 420,2013-05-18 21:31:00,
2013-05-18 15:36:00,61.9,40.1,28.79,NE,55,7.5,10.7,45,-99.99,,,-99.99,WSDL version 420,2013-05-18 21:36:00,
2013-05-18 15:41:00,61.6,40.1,28.79,NNE,30,6.9,10.7,45,-99.99,,,-99.99,WSDL version 420,2013-05-18 21:41:00,
2013-05-18 15:46:00,61.2,39.8,28.79,North,352,8.8,10.7,45,-99.99,,,-99.99,WSDL version 420,2013-05-18 21:46:00,
2013-05-18 15:51:00,60.9,39.6,28.79,North,6,7.5,11.0,46,-99.99,,,-99.99,WSDL version 420,2013-05-18 21:51:00,
2013-05-18 15:56:00,60.7,39.8,28.79,NE,38,8.2,11.0,46,-99.99,,,-99.99,WSDL version 420,2013-05-18 21:56:00,
2013-05-18 16:01:00,-999.0,-99.9,28.79,NNE,32,5.8,10.7,-999,-99.99,,,-99.99,WSDL version 420,2013-05-18 22:01:00,
2013-05-18 16:06:00,60.3,39.5,28.79,NNE,29,6.6,10.3,46,-99.99,,,-99.99,WSDL version 420,2013-05-18 22:06:00,
2013-05-18 16:11:00,60.1,39.3,28.79,North,350,5.4,8.5,46,-99.99,,,-99.99,WSDL version 420,2013-05-18 22:11:00,
2013-05-18 16:16:00,60.0,39.6,28.79,North,9,7.3,9.4,47,-99.99,,,-99.99,WSDL version 420,2013-05-18 22:16:00,
2013-05-18 16:21:00,59.9,40.1,28.79,North,6,7.8,10.5,49,-99.99,,,-99.99,WSDL version 420,2013-05-18 22:21:00,
2013-05-18 16:26:00,59.7,40.6,28.79,NNW,348,7.4,10.5,49,-99.99,,,-99.99,WSDL version 420,2013-05-18 22:26:00,
2013-05-18 16:31:00,59.6,41.2,28.79,North,3,6.2,10.3,52,-99.99,,,-99.99,WSDL version 420,2013-05-18 22:31:00,
2013-05-18 16:36:00,59.3,42.1,28.79,North,353,6.3,8.5,54,-99.99,,,-99.99,WSDL version 420,2013-05-18 22:36:00,
2013-05-18 16:41:00,59.0,43.3,28.79,NE,35,7.5,9.8,56,-99.99,,,-99.99,WSDL version 420,2013-05-18 22:41:00,
2013-05-18 16:46:00,58.8,43.3,28.79,ENE,64,6.8,9.8,57,-99.99,,,-99.99,WSDL version 420,2013-05-18 22:46:00,
2013-05-18 16:51:00,58.7,43.2,28.79,NE,48,4.6,10.3,57,-99.99,,,-99.99,WSDL version 420,2013-05-18 22:51:00,
2013-05-18 16:56:00,58.4,31.6,28.79,North,352,17.2,23.7,36,-99.99,,,-99.99,WSDL version 420,2013-05-18 22:56:00,
2013-05-18 17:01:00,57.9,31.6,28.79,North,360,5.6,23.7,38,-99.99,,,-99.99,WSDL version 420,2013-05-18 23:01:00,
2013-05-18 17:06:00,57.6,41.5,28.79,NNW,338,8.6,11.9,59,-99.99,,,-99.99,WSDL version 420,2013-05-18 23:06:00,
2013-05-18 17:11:00,57.6,44.9,28.79,NNW,335,7.8,11.9,63,-99.99,,,-99.99,WSDL version 420,2013-05-18 23:11:00,
2013-05-18 17:16:00,57.5,44.6,28.79,NNW,332,3.9,11.0,62,-99.99,,,-99.99,WSDL version 420,2013-05-18 23:16:00,
2013-05-18 17:21:00,57.3,44.0,28.79,WNW,290,4.9,8.1,61,-99.99,,,-99.99,WSDL version 420,2013-05-18 23:21:00,
2013-05-18 17:26:00,57.2,44.5,28.79,West,280,7.7,9.8,63,-99.99,,,-99.99,WSDL version 420,2013-05-18 23:26:00,
2013-05-18 17:31:00,57.1,45.0,28.79,WNW,286,7.0,10.5,65,-99.99,,,-99.99,WSDL version 420,2013-05-18 23:31:00,
2013-05-18 17:36:00,56.9,45.2,28.79,NNW,331,3.6,10.5,65,-99.99,,,-99.99,WSDL version 420,2013-05-18 23:36:00,
2013-05-18 17:41:00,56.8,46.4,28.79,NNE,14,12.6,17.2,65,-99.99,,,-99.99,WSDL version 420,2013-05-18 23:41:00,
2013-05-18 17:46:00,56.4,39.7,28.76,NE,34,10.6,17.2,50,-99.99,,,-99.99,WSDL version 420,2013-05-18 23:46:00,
2013-05-18 17:51:00,56.6,41.6,28.76,NE,48,11.8,15.4,67,-99.99,,,-99.99,WSDL version 420,2013-05-18 23:51:00,
2013-05-18 17:56:00,57.2,45.9,28.76,NE,48,9.5,15.7,63,-99.99,,,-99.99,WSDL version 420,2013-05-18 23:56:00,
2013-05-18 18:01:00,57.7,44.2,28.76,North,11,7.2,15.7,60,-99.99,,,-99.99,WSDL version 420,2013-05-19 00:01:00,
2013-05-18 18:06:00,58.5,44.0,28.76,NNE,20,9.7,13.2,59,-99.99,,,-99.99,WSDL version 420,2013-05-19 00:06:00,
2013-05-18 18:11:00,59.6,42.4,28.76,NNE,23,12.0,13.2,48,-99.99,,,-99.99,WSDL version 420,2013-05-19 00:11:00,
2013-05-18 18:16:00,60.6,39.4,28.76,NNE,26,8.8,16.1,45,-99.99,,,-99.99,WSDL version 420,2013-05-19 00:16:00,
2013-05-18 18:21:00,60.8,38.8,28.76,NE,39,11.6,16.1,43,-99.99,,,-99.99,WSDL version 420,2013-05-19 00:21:00,
2013-05-18 18:26:00,60.9,37.5,28.76,NNE,31,10.7,14.5,41,-99.99,,,-99.99,WSDL version 420,2013-05-19 00:26:00,
2013-05-18 18:31:00,60.6,36.3,28.73,NNE,28,9.1,13.6,40,-99.99,,,-99.99,WSDL version 420,2013-05-19 00:31:00,
2013-05-18 18:36:00,60.1,34.6,28.73,NE,34,9.6,14.1,39,-99.99,,,-99.99,WSDL version 420,2013-05-19 00:36:00,
2013-05-18 18:41:00,59.8,34.6,28.73,NE,45,9.2,14.1,38,-99.99,,,-99.99,WSDL version 420,2013-05-19 00:41:00,
2013-05-18 18:46:00,59.7,35.4,28.73,NE,48,7.6,12.8,41,-99.99,,,-99.99,WSDL version 420,2013-05-19 00:46:00,
2013-05-18 18:51:00,59.6,35.5,28.73,NE,56,7.3,11.0,40,-99.99,,,-99.99,WSDL version 420,2013-05-19 00:51:00,
2013-05-18 18:56:00,59.4,35.1,28.73,NE,38,6.3,8.7,40,-99.99,,,-99.99,WSDL version 420,2013-05-19 00:56:00,
2013-05-18 19:01:00,59.2,35.2,28.73,North,11,5.1,7.6,41,-99.99,,,-99.99,WSDL version 420,2013-05-19 01:01:00,
2013-05-18 19:06:00,59.1,35.6,28.73,NE,45,4.4,6.0,41,-99.99,,,-99.99,WSDL version 420,2013-05-19 01:06:00,
2013-05-18 19:11:00,58.9,35.4,28.73,NE,55,4.5,7.2,41,-99.99,,,-99.99,WSDL version 420,2013-05-19 01:11:00,
2013-05-18 19:16:00,58.6,34.5,28.73,ENE,60,2.8,7.2,40,-99.99,,,-99.99,WSDL version 420,2013-05-19 01:16:00,
2013-05-18 19:21:00,58.1,34.5,28.73,NNE,28,2.5,4.5,41,-99.99,,,-99.99,WSDL version 420,2013-05-19 01:21:00,
2013-05-18 19:26:00,57.9,34.3,28.73,NNW,332,2.8,4.0,41,-99.99,,,-99.99,WSDL version 420,2013-05-19 01:26:00,
2013-05-18 19:31:00,57.7,35.1,28.76,NNW,346,3.1,4.0,43,-99.99,,,-99.99,WSDL version 420,2013-05-19 01:31:00,
2013-05-18 19:36:00,57.6,35.5,28.76,NNW,338,3.7,4.7,44,-99.99,,,-99.99,WSDL version 420,2013-05-19 01:36:00,
2013-05-18 19:41:00,57.7,35.9,28.76,WNW,293,3.1,4.7,44,-99.99,,,-99.99,WSDL version 420,2013-05-19 01:41:00,
2013-05-18 19:46:00,57.7,36.6,28.73,WNW,289,3.5,6.0,45,-99.99,,,-99.99,WSDL version 420,2013-05-19 01:46:00,
2013-05-18 19:51:00,57.7,37.2,28.73,WSW,253,4.3,7.2,47,-99.99,,,-99.99,WSDL version 420,2013-05-19 01:51:00,
2013-05-18 19:56:00,57.6,37.9,28.73,WSW,241,2.9,7.6,48,-99.99,,,-99.99,WSDL version 420,2013-05-19 01:56:00,
2013-05-18 20:01:00,57.6,38.2,28.73,SW,231,2.4,7.6,49,-99.99,,,-99.99,WSDL version 420,2013-05-19 02:01:00,
2013-05-18 20:06:00,57.3,38.7,28.73,NNW,330,2.5,3.8,50,-99.99,,,-99.99,WSDL version 420,2013-05-19 02:06:00,
2013-05-18 20:11:00,57.0,38.8,28.73,NW,325,3.9,5.4,51,-99.99,,,-99.99,WSDL version 420,2013-05-19 02:11:00,
2013-05-18 20:16:00,56.7,39.0,28.73,NW,325,4.2,5.6,52,-99.99,,,-99.99,WSDL version 420,2013-05-19 02:16:00,
2013-05-18 20:21:00,56.2,39.0,28.73,NNW,338,2.3,5.6,52,-99.99,,,-99.99,WSDL version 420,2013-05-19 02:21:00,
2013-05-18 20:26:00,55.9,38.6,28.73,NNW,335,2.6,4.9,53,-99.99,,,-99.99,WSDL version 420,2013-05-19 02:26:00,
2013-05-18 20:31:00,55.3,38.7,28.73,NW,315,3.1,3.8,54,-99.99,,,-99.99,WSDL version 420,2013-05-19 02:31:00,
2013-05-18 20:36:00,54.7,38.4,28.73,NW,309,2.7,4.3,54,-99.99,,,-99.99,WSDL version 420,2013-05-19 02:36:00,
2013-05-18 20:41:00,54.5,39.4,28.73,NNW,328,5.5,6.0,58,-99.99,,,-99.99,WSDL version 420,2013-05-19 02:41:00,
2013-05-18 20:46:00,54.5,39.9,28.73,NNW,330,4.6,6.3,58,-99.99,,,-99.99,WSDL version 420,2013-05-19 02:46:00,
2013-05-18 20:51:00,54.5,40.5,28.73,NNW,332,4.6,8.7,59,-99.99,,,-99.99,WSDL version 420,2013-05-19 02:51:00,
2013-05-18 20:56:00,54.4,41.3,28.73,NW,315,7.8,10.7,64,-99.99,,,-99.99,WSDL version 420,2013-05-19 02:56:00,
2013-05-18 21:01:00,54.5,45.0,28.73,NNW,331,6.8,10.7,72,-99.99,,,-99.99,WSDL version 420,2013-05-19 03:01:00,
2013-05-18 21:06:00,54.5,45.8,28.73,NNW,346,7.5,10.1,73,-99.99,,,-99.99,WSDL version 420,2013-05-19 03:06:00,
2013-05-18 21:11:00,54.3,46.2,28.73,NNW,338,5.6,10.1,74,-99.99,,,-99.99,WSDL version 420,2013-05-19 03:11:00,
2013-05-18 21:16:00,54.1,46.2,28.73,NNW,338,7.0,10.5,75,-99.99,,,-99.99,WSDL version 420,2013-05-19 03:16:00,
2013-05-18 21:21:00,54.0,46.6,28.73,NW,315,8.4,11.0,76,-99.99,,,-99.99,WSDL version 420,2013-05-19 03:21:00,
2013-05-18 21:26:00,53.8,46.4,28.73,NW,318,7.9,11.0,76,-99.99,,,-99.99,WSDL version 420,2013-05-19 03:26:00,
2013-05-18 21:31:00,53.7,46.4,28.73,NW,308,7.5,10.5,76,-99.99,,,-99.99,WSDL version 420,2013-05-19 03:31:00,
2013-05-18 21:36:00,53.4,46.2,28.73,WNW,302,8.0,10.7,77,-99.99,,,-99.99,WSDL version 420,2013-05-19 03:36:00,
2013-05-18 21:41:00,53.1,46.1,28.73,WNW,293,7.3,10.7,77,-99.99,,,-99.99,WSDL version 420,2013-05-19 03:41:00,
2013-05-18 21:46:00,52.9,46.0,28.73,WNW,295,5.3,9.8,77,-99.99,,,-99.99,WSDL version 420,2013-05-19 03:46:00,
2013-05-18 21:51:00,52.6,51.8,28.73,WNW,290,5.6,8.5,100,-99.99,,,-99.99,WSDL version 420,2013-05-19 03:51:00,
2013-05-18 21:56:00,52.3,52.3,28.73,West,263,5.8,10.7,100,-99.99,,,-99.99,WSDL version 420,2013-05-19 03:56:00,
2013-05-18 22:01:00,52.3,52.3,28.76,NW,304,4.5,10.7,100,-99.99,,,-99.99,WSDL version 420,2013-05-19 04:01:00,
2013-05-18 22:02:00,52.3,52.3,28.76,NW,309,4.6,10.7,100,-99.99,,,-99.99,WSDL version 420,2013-05-19 04:02:00,
2013-05-18 22:04:00,52.2,52.2,28.76,NW,305,4.3,10.7,100,-99.99,,,-99.99,WSDL version 420,2013-05-19 04:04:00,
2013-05-18 22:06:00,52.2,52.2,28.76,NW,304,5.3,8.1,100,-99.99,,,-99.99,WSDL version 420,2013-05-19 04:06:00,
2013-05-18 22:10:00,52.1,52.1,28.76,NW,315,5.5,8.1,100,-99.99,,,-99.99,WSDL version 420,2013-05-19 04:10:00,
2013-05-18 22:15:00,51.8,51.8,28.79,NW,323,5.9,7.6,100,-99.99,,,-99.99,WSDL version 420,2013-05-19 04:15:00,
2013-05-18 22:20:00,51.8,51.8,28.79,NW,321,6.3,10.3,100,-99.99,,,-99.99,WSDL version 420,2013-05-19 04:20:00,
2013-05-18 22:25:00,51.3,51.3,28.79,NW,324,6.0,10.3,100,-99.99,,,-99.99,WSDL version 420,2013-05-19 04:25:00,
2013-05-18 22:30:00,50.7,50.7,28.79,NNW,333,8.1,10.3,100,-99.99,,,-99.99,WSDL version 420,2013-05-19 04:30:00,
2013-05-18 22:35:00,50.6,50.6,28.79,NW,315,8.1,10.7,100,-99.99,,,-99.99,WSDL version 420,2013-05-19 04:35:00,
2013-05-18 22:40:00,50.7,50.7,28.79,NW,325,7.0,10.7,100,-99.99,,,-99.99,WSDL version 420,2013-05-19 04:40:00,
2013-05-18 22:45:00,50.8,50.7,28.79,NNW,338,8.5,12.5,100,-99.99,,,-99.99,WSDL version 420,2013-05-19 04:45:00,
2013-05-18 22:50:00,50.7,50.7,28.79,WNW,293,6.7,12.5,100,-99.99,,,-99.99,WSDL version 420,2013-05-19 04:50:00,
2013-05-18 22:55:00,50.9,50.9,28.79,NW,321,8.9,11.9,100,-99.99,,,-99.99,WSDL version 420,2013-05-19 04:55:00,
2013-05-18 23:00:00,50.9,50.9,28.79,NW,320,8.0,11.9,100,-99.99,,,-99.99,WSDL version 420,2013-05-19 05:00:00,
2013-05-18 23:05:00,51.0,51.0,28.79,NNW,330,7.3,10.3,100,-99.99,,,-99.99,WSDL version 420,2013-05-19 05:05:00,
2013-05-18 23:10:00,51.1,51.1,28.79,NW,318,7.6,10.7,100,-99.99,,,-99.99,WSDL version 420,2013-05-19 05:10:00,
2013-05-18 23:15:00,51.1,51.1,28.79,NW,326,7.7,11.0,100,-99.99,,,-99.99,WSDL version 420,2013-05-19 05:15:00,
2013-05-18 23:20:00,51.1,51.1,28.79,NW,311,7.8,11.0,100,-99.99,,,-99.99,WSDL version 420,2013-05-19 05:20:00,
2013-05-18 23:25:00,51.1,51.1,28.79,NW,321,8.2,11.9,100,-99.99,,,-99.99,WSDL version 420,2013-05-19 05:25:00,
2013-05-18 23:30:00,51.0,51.0,28.82,NW,320,7.3,13.2,100,-99.99,,,-99.99,WSDL version 420,2013-05-19 05:30:00,
2013-05-18 23:35:00,51.0,51.0,28.82,NNW,331,8.1,13.2,100,-99.99,,,-99.99,WSDL version 420,2013-05-19 05:35:00,
2013-05-18 23:40:00,51.0,51.0,28.82,NW,315,9.8,13.2,100,-99.99,,,-99.99,WSDL version 420,2013-05-19 05:40:00,
2013-05-18 23:45:00,51.1,51.1,28.82,NNW,338,7.5,13.2,100,-99.99,,,-99.99,WSDL version 420,2013-05-19 05:45:00,
2013-05-18 23:50:00,51.1,51.1,28.82,NW,309,6.2,10.3,100,-99.99,,,-99.99,WSDL version 420,2013-05-19 05:50:00,
2013-05-18 23:55:00,51.1,51.1,28.82,NNW,334,6.5,8.5,100,-99.99,,,-99.99,WSDL version 420,2013-05-19 05:55:00,